FW0333 Weather Reports


Display with metric or nautical units.
time (UTC)temp
F
wind
direction
speed
MPH
gust
MPH
rain 1hr
in
rain 24hr
in
rain mn
in
humidity
%
barometer
mb
20190323162554 50 201 0.0 0.0 0.00 0.38 0.34 94 1022.1
20190323162052 50 205 0.0 0.0 0.00 0.38 0.34 95 1022.1
20190323161553 49 224 0.0 1.0 0.00 0.38 0.34 95 1022.0
20190323161052 50 236 0.0 1.0 0.00 0.39 0.34 95 1022.0
20190323160552 50 237 0.0 0.0 0.00 0.39 0.34 96 1021.9
20190323160052 49 237 0.0 0.0 0.00 0.39 0.34 96 1022.1
20190323155551 49 237 0.0 0.0 0.00 0.39 0.34 95 1022.0
20190323155052 49 237 0.0 1.0 0.00 0.39 0.34 95 1022.0
20190323154552 49 238 0.0 1.0 0.00 0.39 0.34 95 1022.0
20190323154049 49 238 0.0 0.0 0.00 0.39 0.34 95 1021.9
20190323153549 49 238 0.0 0.0 0.00 0.39 0.34 96 1021.9
20190323153050 49 238 0.0 0.0 0.00 0.39 0.34 96 1021.7
20190323152550 49 237 0.0 0.0 0.00 0.39 0.34 96 1021.8
20190323152049 49 238 0.0 0.0 0.00 0.39 0.34 96 1021.8
20190323151546 48 238 0.0 0.0 0.00 0.39 0.34 96 1021.7
20190323151045 48 238 0.0 0.0 0.00 0.39 0.34 96 1021.7
20190323150546 48 238 0.0 0.0 0.00 0.39 0.34 96 1021.7
20190323150046 48 238 0.0 0.0 0.00 0.39 0.34 96 1021.6
20190323145552 47 238 0.0 0.0 0.00 0.39 0.34 96 1021.6
20190323145046 47 238 0.0 0.0 0.00 0.39 0.34 96 1021.4
20190323144546 47 238 0.0 0.0 0.00 0.39 0.34 96 1021.3
20190323144044 47 238 0.0 0.0 0.00 0.39 0.34 96 1021.2
20190323143543 47 238 0.0 0.0 0.00 0.39 0.34 96 1021.1
20190323143044 47 238 0.0 0.0 0.00 0.39 0.34 96 1021.1
20190323142540 47 238 0.0 0.0 0.00 0.39 0.34 95 1021.1
20190323142040 47 238 0.0 0.0 0.00 0.39 0.34 96 1020.9
20190323141538 47 238 0.0 0.0 0.00 0.39 0.34 96 1020.9
20190323141038 47 238 0.0 0.0 0.00 0.39 0.34 96 1020.8
20190323140538 47 238 0.0 0.0 0.00 0.40 0.34 96 1020.8
20190323140039 47 238 0.0 0.0 0.00 0.40 0.34 95 1020.8
20190323135538 47 238 0.0 0.0 0.00 0.40 0.34 95 1020.7
20190323135038 47 238 0.0 0.0 0.00 0.40 0.34 95 1020.7
20190323134537 47 238 0.0 0.0 0.00 0.40 0.34 95 1020.7
20190323134038 47 238 0.0 0.0 0.00 0.40 0.34 95 1020.6
20190323133537 47 238 0.0 0.0 0.00 0.40 0.34 95 1020.6
20190323133038 47 238 0.0 0.0 0.00 0.40 0.34 95 1020.6
20190323132537 47 238 0.0 0.0 0.00 0.40 0.34 95 1020.6
20190323132038 47 238 0.0 0.0 0.00 0.40 0.34 95 1020.6
20190323131538 48 238 0.0 0.0 0.00 0.40 0.34 95 1020.4
20190323131038 48 238 0.0 0.0 0.00 0.40 0.34 95 1020.4
20190323130538 48 238 0.0 0.0 0.01 0.41 0.34 95 1020.4
20190323130038 48 238 0.0 0.0 0.01 0.41 0.34 95 1020.3
20190323125538 48 238 0.0 0.0 0.01 0.41 0.34 95 1020.3
20190323125038 48 238 0.0 0.0 0.01 0.41 0.34 95 1020.4
20190323124538 48 238 0.0 0.0 0.01 0.41 0.34 95 1020.3
20190323124037 48 238 0.0 0.0 0.01 0.41 0.34 95 1020.3
20190323123537 48 238 0.0 0.0 0.01 0.41 0.34 95 1020.4
20190323123037 48 238 0.0 0.0 0.01 0.41 0.34 95 1020.3
20190323122537 48 238 0.0 0.0 0.01 0.41 0.34 95 1020.3
20190323122037 48 238 0.0 0.0 0.02 0.41 0.34 95 1020.4
20190323121537 48 238 0.0 0.0 0.02 0.41 0.34 95 1020.3
20190323121037 48 237 0.0 0.0 0.03 0.41 0.34 95 1020.4
20190323120537 48 238 0.0 0.0 0.02 0.40 0.33 95 1020.4
20190323120037 48 238 0.0 0.0 0.03 0.40 0.33 95 1020.3
20190323115535 48 238 0.0 0.0 0.04 0.40 0.33 95 1020.6
20190323115035 48 238 0.0 1.0 0.04 0.40 0.33 95 1020.4
20190323114536 48 238 0.0 1.0 0.04 0.40 0.33 95 1020.4
20190323114037 48 238 0.0 0.0 0.05 0.40 0.33 95 1020.3
20190323113535 48 238 0.0 0.0 0.05 0.40 0.33 95 1020.2
20190323113035 48 238 0.0 0.0 0.05 0.40 0.33 95 1020.4
20190323112535 48 238 0.0 0.0 0.06 0.40 0.33 95 1020.4
20190323112035 48 238 0.0 0.0 0.05 0.39 0.33 95 1020.6
20190323111535 48 238 0.0 0.0 0.05 0.39 0.32 95 1020.6
20190323111035 49 238 0.0 0.0 0.05 0.38 0.31 95 1020.7
20190323110533 49 238 0.0 0.0 0.05 0.38 0.31 95 1020.7
20190323110033 49 238 0.0 0.0 0.05 0.37 0.30 95 1020.7
20190323105533 49 238 0.0 0.0 0.05 0.36 0.29 95 1020.7
20190323105033 49 238 0.0 0.0 0.05 0.36 0.29 95 1020.7
20190323104533 49 238 0.0 0.0 0.06 0.36 0.29 95 1020.8
20190323104033 49 238 0.0 0.0 0.05 0.35 0.28 95 1020.8
20190323103533 49 238 0.0 0.0 0.05 0.35 0.28 95 1020.7
20190323103033 49 238 0.0 0.0 0.06 0.35 0.28 95 1020.6
20190323102533 49 238 0.0 0.0 0.05 0.34 0.27 95 1020.7
20190323102031 49 238 0.0 0.0 0.06 0.34 0.27 95 1020.7
20190323101531 49 238 0.0 0.0 0.07 0.34 0.27 95 1020.7
20190323101031 49 238 0.0 0.0 0.07 0.33 0.26 95 1020.7
20190323100532 49 238 0.0 0.0 0.09 0.33 0.26 95 1020.8
20190323100031 49 238 0.0 0.0 0.09 0.32 0.25 95 1020.8
20190323095530 49 238 0.0 0.0 0.08 0.31 0.24 95 1020.8
20190323095031 49 238 0.0 0.0 0.08 0.31 0.24 95 1020.8
20190323094531 50 238 0.0 0.0 0.08 0.30 0.23 95 1020.7
20190323094031 50 238 0.0 0.0 0.09 0.30 0.23 95 1020.8
20190323093529 50 238 0.0 0.0 0.09 0.30 0.23 95 1020.8
20190323093029 50 238 0.0 1.0 0.09 0.29 0.22 95 1020.8
20190323092532 50 238 0.0 1.0 0.10 0.29 0.22 95 1020.8
20190323092029 50 239 0.0 0.0 0.11 0.28 0.21 95 1020.8
20190323091529 50 238 0.0 0.0 0.12 0.27 0.21 95 1020.8
20190323091029 50 238 0.0 1.0 0.12 0.26 0.19 95 1020.8
20190323090529 50 239 0.0 1.0 0.11 0.24 0.17 95 1020.7
20190323090029 50 240 0.0 1.0 0.11 0.23 0.17 95 1020.6
20190323085529 50 238 0.0 0.0 0.11 0.23 0.16 95 1020.6
20190323085028 50 238 0.0 0.0 0.12 0.23 0.16 95 1020.4
20190323084527 50 238 0.0 0.0 0.11 0.22 0.15 95 1020.6
20190323084028 50 238 0.0 1.0 0.11 0.21 0.14 95 1020.6
20190323083527 50 238 0.0 1.0 0.12 0.21 0.14 95 1020.6
20190323083027 50 239 0.0 1.0 0.12 0.20 0.13 95 1020.6
20190323082527 50 239 0.0 1.0 0.11 0.19 0.12 95 1020.7
20190323082027 50 33 0.0 0.0 0.10 0.17 0.10 95 1020.8
20190323081525 50 33 0.0 1.0 0.08 0.15 0.08 95 1020.9
20190323081024 50 33 0.0 1.0 0.07 0.14 0.07 95 1020.7
20190323080528 50 229 0.0 1.0 0.06 0.13 0.06 95 1020.8
20190323080023 50 232 0.0 1.0 0.05 0.12 0.06 95 1020.7
20190323075523 50 359 0.0 1.0 0.05 0.12 0.05 95 1020.8
20190323075021 50 338 0.0 3.0 0.04 0.11 0.04 94 1020.8
20190323074528 50 14 0.0 3.0 0.04 0.11 0.04 94 1020.8
20190323074020 50 346 0.0 1.0 0.03 0.10 0.03 94 1020.8
20190323073521 50 14 0.0 1.0 0.02 0.09 0.02 94 1020.9
20190323073018 50 33 0.0 1.0 0.02 0.08 0.01 94 1021.1
20190323072519 50 33 0.0 1.0 0.02 0.08 0.01 94 1021.1
20190323072019 50 33 0.0 0.0 0.01 0.07 0.00 94 1021.1
20190323071519 50 33 0.0 1.0 0.02 0.07 0.00 94 1021.1
20190323071017 50 33 0.0 1.0 0.02 0.07 0.00 94 1021.0
20190323070519 50 33 0.0 1.0 0.02 0.07 0.00 94 1021.1
20190323070021 50 33 0.0 1.0 0.03 0.07 0.00 94 1021.0
20190323065512 50 33 0.0 1.0 0.03 0.07 0.07 94 1020.9
20190323065012 50 33 0.0 1.0 0.03 0.07 0.07 94 1021.0
20190323064512 50 32 0.0 1.0 0.03 0.07 0.07 94 1021.0
20190323064013 50 32 0.0 0.0 0.03 0.07 0.07 94 1021.0
20190323063512 50 32 0.0 1.0 0.03 0.07 0.07 93 1020.9
20190323063012 50 32 0.0 1.0 0.02 0.06 0.06 93 1020.9
20190323062512 50 32 0.0 0.0 0.02 0.06 0.06 93 1021.1
20190323062010 50 32 0.0 0.0 0.01 0.05 0.06 93 1021.0
20190323061510 50 32 0.0 0.0 0.01 0.05 0.05 93 1020.9
20190323061010 50 32 0.0 1.0 0.01 0.05 0.05 93 1020.9
20190323060510 50 32 0.0 1.0 0.01 0.05 0.05 93 1020.9
20190323060010 50 34 0.0 1.0 0.00 0.04 0.04 93 1020.9
20190323055510 51 232 0.0 1.0 0.00 0.04 0.04 93 1021.1
20190323055010 51 232 0.0 1.0 0.00 0.04 0.04 93 1021.0
20190323054510 51 233 0.0 2.0 0.00 0.04 0.04 93 1020.9
20190323054010 51 231 0.0 3.0 0.00 0.04 0.04 93 1020.9
20190323053509 51 17 0.0 3.0 0.00 0.04 0.04 93 1020.9
20190323053009 51 229 0.0 3.0 0.00 0.04 0.04 93 1020.9
20190323052508 51 14 0.0 3.0 0.00 0.04 0.04 92 1020.9
20190323052008 51 43 0.0 1.0 0.00 0.04 0.04 92 1020.9
20190323051515 51 43 0.0 1.0 0.00 0.04 0.04 92 1020.9
20190323051009 51 43 0.0 1.0 0.00 0.04 0.04 92 1020.9
20190323050508 51 43 0.0 0.0 0.00 0.04 0.04 92 1020.9
20190323050012 51 43 0.0 0.0 0.00 0.04 0.04 92 1020.9
20190323045508 51 43 0.0 0.0 0.00 0.04 0.04 91 1020.9
20190323045008 51 43 0.0 1.0 0.00 0.04 0.04 91 1021.0
20190323044508 51 43 0.0 1.0 0.00 0.04 0.04 91 1020.9
20190323044006 51 43 0.0 1.0 0.00 0.04 0.04 91 1020.9
20190323043506 51 43 0.0 3.0 0.00 0.04 0.04 91 1020.9
20190323043006 51 43 1.0 3.0 0.00 0.04 0.04 90 1020.8
20190323042505 51 36 0.0 3.0 0.00 0.04 0.04 90 1020.9
20190323042016 51 239 0.0 2.0 0.00 0.04 0.04 91 1020.9
20190323041506 51 238 1.0 3.0 0.00 0.04 0.04 91 1020.8
20190323041007 51 223 1.0 8.0 0.00 0.04 0.04 90 1020.8
20190323040508 51 350 0.0 8.0 0.00 0.04 0.04 90 1020.9
20190323040005 51 205 0.0 1.0 0.00 0.04 0.04 90 1020.8
20190323035504 51 205 0.0 2.0 0.00 0.04 0.04 90 1020.8
20190323035005 51 156 0.0 2.0 0.00 0.04 0.04 90 1020.8
20190323034505 51 32 0.0 2.0 0.00 0.04 0.04 90 1020.9
20190323034004 51 216 0.0 2.0 0.00 0.04 0.04 90 1020.8
20190323033503 51 223 0.0 5.0 0.00 0.04 0.04 90 1021.0
20190323033000 51 69 0.0 5.0 0.00 0.04 0.04 90 1021.0
20190323032500 51 221 0.0 1.0 0.00 0.04 0.04 92 1021.0
20190323032000 51 232 0.0 1.0 0.00 0.04 0.04 91 1021.1
20190323031459 51 231 0.0 2.0 0.00 0.04 0.04 91 1021.1
20190323030958 51 18 0.0 2.0 0.00 0.04 0.04 91 1021.1
20190323030500 51 229 0.0 1.0 0.00 0.04 0.04 91 1020.9
20190323025957 51 231 0.0 1.0 0.00 0.04 0.04 91 1021.0
20190323025501 51 229 0.0 5.0 0.00 0.04 0.04 91 1020.9
20190323024956 51 210 1.0 5.0 0.00 0.04 0.04 91 1021.0
20190323024459 51 359 0.0 3.0 0.00 0.04 0.04 91 1021.1
20190323023953 51 243 0.0 3.0 0.00 0.04 0.04 91 1020.9
20190323023454 51 234 0.0 1.0 0.00 0.04 0.04 91 1020.9
20190323022954 51 42 0.0 1.0 0.00 0.04 0.04 91 1020.9
20190323022452 51 42 0.0 4.0 0.00 0.04 0.04 91 1020.8
20190323021951 51 16 0.0 4.0 0.01 0.04 0.04 91 1020.7
20190323021452 51 313 0.0 2.0 0.01 0.04 0.04 91 1020.8
20190323020951 52 5 0.0 2.0 0.01 0.04 0.04 91 1020.8
20190323020452 52 16 1.0 2.0 0.01 0.04 0.04 91 1020.8
20190323015953 52 70 2.0 6.0 0.01 0.04 0.04 91 1020.9
20190323015452 52 13 2.0 6.0 0.01 0.04 0.04 91 1020.8
20190323014951 52 22 1.0 6.0 0.01 0.04 0.04 92 1021.0
20190323014452 52 75 0.0 2.0 0.01 0.04 0.04 92 1020.9
20190323013952 52 17 0.0 2.0 0.01 0.04 0.04 92 1021.0
20190323013452 52 224 0.0 1.0 0.01 0.04 0.04 92 1021.0
20190323012951 52 46 0.0 1.0 0.01 0.04 0.04 92 1020.9
20190323012452 52 46 0.0 1.0 0.01 0.04 0.04 92 1021.0
20190323011951 52 109 0.0 1.0 0.00 0.03 0.03 91 1020.9
20190323011452 52 30 0.0 1.0 0.00 0.03 0.03 91 1021.0
20190323010952 52 54 0.0 1.0 0.00 0.03 0.03 91 1020.9
20190323010451 52 54 0.0 1.0 0.00 0.03 0.03 90 1021.0
20190323005951 52 72 0.0 2.0 0.00 0.03 0.03 90 1021.0
20190323005452 52 77 1.0 2.0 0.00 0.03 0.03 89 1021.0
20190323004951 53 8 1.0 3.0 0.00 0.03 0.03 88 1021.1
20190323004452 53 34 0.0 3.0 0.00 0.03 0.03 88 1021.1
20190323003951 53 236 0.0 1.0 0.00 0.03 0.03 89 1021.1
20190323003451 53 22 0.0 1.0 0.00 0.03 0.03 88 1021.2
20190323002951 52 17 0.0 2.0 0.00 0.03 0.03 88 1021.2
20190323002453 52 41 0.0 2.0 0.00 0.03 0.03 89 1021.2
20190323001952 52 22 0.0 2.0 0.00 0.03 0.03 89 1021.3
20190323001451 52 27 0.0 2.0 0.00 0.03 0.03 89 1021.3
20190323000951 52 248 0.0 2.0 0.00 0.03 0.03 89 1021.3
20190323000451 52 50 1.0 2.0 0.00 0.03 0.03 89 1021.3
20190322235951 52 29 0.0 2.0 0.00 0.03 0.03 88 1021.4
20190322235451 52 44 0.0 4.0 0.00 0.03 0.03 88 1021.4
20190322234956 52 34 0.0 4.0 0.00 0.03 0.03 88 1021.4
20190322234449 52 12 0.0 1.0 0.00 0.03 0.03 88 1021.4
20190322233948 52 345 0.0 1.0 0.00 0.03 0.03 90 1021.5
20190322233447 52 6 0.0 2.0 0.00 0.03 0.03 89 1021.6
20190322232947 52 22 0.0 2.0 0.00 0.03 0.03 89 1021.5
20190322232448 52 24 1.0 5.0 0.00 0.03 0.03 89 1021.6
20190322231947 53 47 1.0 5.0 0.00 0.03 0.03 88 1021.6
20190322231449 53 41 1.0 4.0 0.00 0.03 0.03 88 1021.5
20190322230947 53 15 1.0 4.0 0.00 0.03 0.03 88 1021.6
20190322230447 53 13 1.0 3.0 0.00 0.03 0.03 88 1021.6
20190322225947 53 347 1.0 4.0 0.00 0.03 0.03 87 1021.7
20190322225448 53 359 1.0 4.0 0.00 0.03 0.03 88 1021.8
20190322224950 53 354 1.0 4.0 0.00 0.03 0.03 87 1021.8
20190322224445 53 28 2.0 4.0 0.00 0.03 0.03 89 1021.8
20190322223949 53 33 2.0 8.0 0.00 0.03 0.03 86 1021.8
20190322223445 53 356 2.0 8.0 0.00 0.03 0.03 85 1021.9
20190322222946 53 356 2.0 5.0 0.00 0.03 0.03 85 1021.9
20190322222447 53 15 2.0 5.0 0.00 0.03 0.03 85 1021.9
20190322221946 53 18 1.0 5.0 0.00 0.03 0.03 86 1022.0
20190322221444 53 30 1.0 6.0 0.00 0.03 0.03 84 1022.1
20190322220944 53 328 1.0 6.0 0.00 0.03 0.03 85 1022.1
20190322220443 53 349 1.0 3.0 0.00 0.03 0.03 85 1022.1
20190322215943 53 42 1.0 6.0 0.00 0.03 0.03 85 1022.0
20190322215444 53 314 2.0 6.0 0.00 0.03 0.03 85 1022.1
20190322214943 53 349 1.0 6.0 0.00 0.03 0.03 86 1022.1
20190322214443 53 128 1.0 8.0 0.00 0.03 0.03 86 1022.2
20190322213943 53 46 3.0 8.0 0.00 0.03 0.03 85 1022.3
20190322213444 53 10 3.0 8.0 0.00 0.03 0.03 84 1022.1
20190322212943 54 20 1.0 6.0 0.00 0.03 0.03 83 1022.2
20190322212443 54 57 1.0 5.0 0.00 0.03 0.03 82 1022.2
20190322211941 54 15 1.0 6.0 0.00 0.03 0.03 82 1022.2
20190322211441 54 17 2.0 6.0 0.00 0.03 0.03 81 1022.3
20190322210941 54 31 2.0 6.0 0.00 0.03 0.03 82 1022.3
20190322210441 54 51 2.0 8.0 0.00 0.03 0.03 81 1022.3
20190322205939 54 27 2.0 8.0 0.00 0.03 0.03 81 1022.2
20190322205439 54 49 1.0 5.0 0.00 0.03 0.03 81 1022.2
20190322204939 54 113 2.0 5.0 0.00 0.03 0.03 81 1022.2
20190322204439 54 321 2.0 5.0 0.00 0.03 0.03 82 1022.2
20190322203937 54 31 2.0 5.0 0.00 0.03 0.03 81 1022.2
20190322203436 55 38 1.0 3.0 0.00 0.03 0.03 81 1022.2
20190322202937 55 351 0.0 2.0 0.00 0.03 0.03 81 1022.2
20190322202436 55 240 0.0 4.0 0.00 0.03 0.03 82 1022.1
20190322201937 54 143 1.0 4.0 0.00 0.03 0.03 80 1022.2
20190322201434 54 309 1.0 3.0 0.00 0.03 0.03 81 1022.2
20190322200935 54 32 1.0 5.0 0.00 0.03 0.03 83 1022.3
20190322200435 54 28 1.0 5.0 0.00 0.03 0.03 82 1022.3
20190322195934 54 349 1.0 4.0 0.00 0.03 0.03 83 1022.4
20190322195435 54 1 1.0 4.0 0.00 0.03 0.03 82 1022.4
20190322194935 54 6 1.0 5.0 0.00 0.03 0.03 81 1022.5
20190322194436 54 176 1.0 5.0 0.00 0.03 0.03 83 1022.5
20190322193934 54 8 0.0 4.0 0.00 0.03 0.03 81 1022.5
20190322193435 54 39 1.0 6.0 0.00 0.03 0.03 82 1022.4
20190322192935 54 3 1.0 6.0 0.00 0.03 0.03 81 1022.4
20190322192434 54 298 1.0 3.0 0.00 0.03 0.03 81 1022.4
20190322191935 55 350 1.0 3.0 0.00 0.03 0.03 81 1022.5
20190322191435 54 23 1.0 4.0 0.00 0.03 0.03 82 1022.4
20190322190934 54 69 1.0 4.0 0.00 0.03 0.03 84 1022.3
20190322190434 54 352 1.0 4.0 0.00 0.03 0.03 82 1022.3
20190322185935 54 357 0.0 6.0 0.00 0.03 0.03 81 1022.4
20190322185436 54 46 1.0 6.0 0.00 0.03 0.03 82 1022.4
20190322184935 53 129 2.0 7.0 0.00 0.03 0.03 82 1022.3
20190322184435 53 336 2.0 7.0 0.00 0.03 0.03 82 1022.3
20190322183933 53 52 2.0 6.0 0.00 0.03 0.03 82 1022.3
20190322183433 53 50 3.0 7.0 0.00 0.03 0.03 82 1022.3
20190322182932 53 46 2.0 7.0 0.00 0.03 0.03 81 1022.3
20190322182433 53 39 1.0 4.0 0.00 0.03 0.03 82 1022.3
20190322181933 53 121 1.0 6.0 0.00 0.03 0.03 85 1022.2
20190322181432 53 85 1.0 6.0 0.00 0.03 0.03 85 1022.2
20190322180933 52 27 1.0 7.0 0.00 0.03 0.03 85 1022.2
20190322180432 52 23 2.0 8.0 0.00 0.03 0.03 85 1022.3
20190322175932 51 357 1.0 8.0 0.00 0.03 0.03 86 1022.3
20190322175433 51 352 1.0 4.0 0.00 0.03 0.03 86 1022.3
20190322174933 51 48 1.0 4.0 0.00 0.03 0.03 86 1022.4
20190322174433 51 333 1.0 3.0 0.00 0.03 0.03 86 1022.5
20190322173932 50 12 0.0 2.0 0.00 0.03 0.03 88 1022.6
20190322173432 50 8 0.0 1.0 0.00 0.03 0.03 89 1022.5
20190322172933 50 129 0.0 5.0 0.00 0.03 0.03 91 1022.4
20190322172433 50 113 0.0 5.0 0.00 0.03 0.03 91 1022.5
20190322171933 50 85 0.0 2.0 0.00 0.03 0.03 93 1022.5
20190322171433 49 39 0.0 2.0 0.00 0.03 0.03 93 1022.3
20190322170932 49 49 0.0 1.0 0.01 0.03 0.03 94 1022.3
20190322170432 49 6 0.0 1.0 0.01 0.03 0.03 95 1022.1
20190322165933 49 228 0.0 1.0 0.01 0.03 0.03 96 1022.0
20190322165432 49 11 0.0 4.0 0.01 0.03 0.03 96 1022.1
20190322164933 49 42 1.0 4.0 0.01 0.03 0.03 96 1022.1
20190322164432 48 26 0.0 4.0 0.01 0.03 0.03 96 1022.1
20190322163933 48 145 0.0 0.0 0.01 0.03 0.03 96 1022.1
20190322163432 48 34 0.0 0.0 0.01 0.03 0.03 96 1022.1
20190322162933 47 34 0.0 0.0 0.01 0.03 0.03 96 1022.0